East Taunton, MA

5:51 AM EDT on September 29, 2016 (GMT -0400)
Taunton Municipal

Weather History for KTAN - March, 2012

Change the Weather History Date:

Tuesday, March 13, 2012

  Actual Average Record
Temperature  
Mean Temperature 56 °F -  
Max Temperature 64 °F 44 °F 64 °F (1957)
Min Temperature 48 °F 27 °F 9 °F (1998)
Degree Days  
Heating Degree Days 9    
Growing Degree Days 6 (Base 50)    
Moisture  
Dew Point 47 °F    
Average Humidity 81    
Maximum Humidity 97    
Minimum Humidity 63    
Precipitation  
Precipitation 0.01 in - - ()
Sea Level Pressure  
Sea Level Pressure 30.01 in    
Wind  
Wind Speed 6 mph (SSW)    
Max Wind Speed 15 mph    
Max Gust Speed 20 mph    
Visibility 9 miles    
Events Rain    
Averages and records for this station are not official NWS values.
T = Trace of Precipitation, MM = Missing Value Source: NWS Daily Summary

Daily Weather History Graph

Daily Weather History Graph

Search for Another Location

Airport or City:

Trip Planner

Search our weather history database for the weather conditions in past years. The results will help you decide how hot, cold, wet, or windy it might be!

Date:

Astronomy

Mar. 13, 2012 Rise Set
Actual Time 6:58 AM EDT 6:48 PM EDT
Civil Twilight 6:30 AM EDT 7:16 PM EDT
Nautical Twilight 5:58 AM EDT 7:49 PM EDT
Astronomical Twilight 5:25 AM EDT 8:21 PM EDT
Moon 12:23 AM EDT (3/13) 10:02 AM EDT (3/13)
Length of Visible Light 12h 45m
Length of Day
11h 50m
Waning Gibbous, 66% of the Moon is Illuminated
Mar 13
Waning Gibbous
Mar 14
Last Quarter
Mar 22
New
Mar 30
First Quarter
Apr 6
Full

Hourly Weather History & Observations

Time (EDT) Temp. Dew Point Humidity Pressure Visibility Wind Dir Wind Speed Gust Speed Precip Events Conditions
12:52 AM 51.1 °F 39.0 °F 63% 30.13 in 10.0 mi SSW 5.8 mph - N/A   Clear
1:52 AM 51.1 °F 39.9 °F 66% 30.12 in 10.0 mi SSW 5.8 mph - N/A   Partly Cloudy
2:52 AM 51.1 °F 41.0 °F 68% 30.11 in 10.0 mi Calm Calm - N/A   Overcast
3:52 AM 50.0 °F 41.0 °F 71% 30.09 in 10.0 mi Calm Calm - N/A   Mostly Cloudy
4:52 AM 50.0 °F 42.1 °F 74% 30.08 in 10.0 mi Calm Calm - N/A   Overcast
5:52 AM 50.0 °F 43.0 °F 77% 30.07 in 10.0 mi South 3.5 mph - N/A   Overcast
6:52 AM 50.0 °F 44.1 °F 80% 30.06 in 10.0 mi SSE 3.5 mph - 0.00 in Rain Light Rain
7:52 AM 50.0 °F 45.0 °F 83% 30.06 in 10.0 mi SSW 4.6 mph - 0.00 in   Overcast
8:52 AM 51.1 °F 46.0 °F 83% 30.07 in 10.0 mi SSW 5.8 mph - N/A   Overcast
9:52 AM 51.1 °F 48.0 °F 89% 30.07 in 10.0 mi SSW 4.6 mph - 0.00 in   Overcast
10:50 AM 53.6 °F 50.0 °F 88% 30.03 in 9.0 mi South 8.1 mph - 0.01 in   Overcast
10:52 AM 53.1 °F 50.0 °F 89% 30.04 in 9.0 mi South 6.9 mph - 0.01 in   Overcast
10:59 AM 53.6 °F 51.8 °F 94% 30.03 in 10.0 mi South 8.1 mph - N/A   Overcast
11:52 AM 55.9 °F 50.0 °F 80% 30.00 in 10.0 mi SSW 11.5 mph 19.6 mph N/A   Mostly Cloudy
12:52 PM 59.0 °F 52.0 °F 78% 29.99 in 10.0 mi SSW 9.2 mph 17.3 mph N/A   Mostly Cloudy
1:52 PM 61.0 °F 52.0 °F 72% 29.96 in 10.0 mi SW 12.7 mph 18.4 mph N/A   Scattered Clouds
2:52 PM 62.1 °F 52.0 °F 70% 29.94 in 10.0 mi SSW 12.7 mph 19.6 mph N/A   Clear
3:52 PM 62.1 °F 52.0 °F 70% 29.92 in 10.0 mi SSW 15.0 mph - N/A   Clear
4:52 PM 61.0 °F 51.1 °F 70% 29.91 in 10.0 mi South 9.2 mph - N/A   Clear
5:52 PM 55.9 °F 50.0 °F 80% 29.92 in 10.0 mi SSW 12.7 mph - N/A   Clear
6:52 PM 53.1 °F 48.9 °F 86% 29.93 in 10.0 mi SSW 4.6 mph - N/A   Partly Cloudy
7:52 PM 51.1 °F 48.0 °F 89% 29.96 in 10.0 mi SSW 4.6 mph - N/A   Partly Cloudy
8:52 PM 51.1 °F 48.9 °F 92% 29.97 in 7.0 mi SSW 6.9 mph - N/A   Mostly Cloudy
9:52 PM 50.0 °F 48.9 °F 96% 29.98 in 4.0 mi South 4.6 mph - N/A   Overcast
10:52 PM 50.0 °F 48.9 °F 96% 29.97 in 5.0 mi South 4.6 mph - N/A   Overcast
11:52 PM 48.9 °F 48.0 °F 97% 29.96 in 7.0 mi Calm Calm - N/A   Mostly Cloudy